Theta_e
317 317 317 317 317 317 317 317 317 316 315 314 314 313 313 312 311 310 309 308 307 306 309 314 318 318 319 318 316 316 318 318 316 314 313 313 314 315 315 316 315 314 312 311 311 310 310 310 310 310 311 310 306 305 302 296 293 293 293 292 292 292 292 293 295 294 294 293 293 293 293 292 291 291 290 289 288 288 288 288 287 287 287 287 287
317 317 317 317 317 317 317 317 317 316 315 315 314 314 313 312 311 310 309 308 306 305 309 314 317 318 317 314 313 316 317 317 316 315 313 313 314 315 315 315 315 313 312 312 312 311 311 311 310 310 311 309 306 304 300 294 293 293 293 292 293 293 294 296 298 297 296 295 296 296 295 294 293 291 290 289 288 288 288 287 287 287 287 287 287
317 317 317 317 317 317 317 317 317 317 316 316 315 314 313 312 311 310 309 308 306 305 308 313 316 315 313 313 315 316 316 315 316 315 314 313 313 314 315 315 314 313 313 313 313 312 311 311 310 310 310 308 305 301 296 293 293 293 293 293 293 295 297 298 298 298 297 297 296 296 295 294 293 291 290 289 288 288 288 288 288 287 287 287 287
317 317 317 317 317 317 317 317 317 317 317 316 316 314 312 311 311 310 309 308 306 305 307 311 313 311 312 314 315 315 314 315 315 314 314 313 313 314 314 314 313 313 313 313 313 312 311 310 311 310 309 307 303 298 293 292 292 292 293 293 295 297 298 298 298 298 297 297 296 296 294 293 292 291 290 289 289 289 289 289 288 288 288 288 288
317 317 317 317 317 316 317 317 317 317 317 317 316 314 312 311 310 310 308 308 307 305 306 308 310 310 312 313 313 313 314 313 313 312 313 313 312 313 313 313 312 312 312 311 311 309 308 310 311 309 309 307 301 295 292 292 292 292 293 294 296 298 298 298 298 297 297 297 296 295 294 293 292 291 290 289 289 289 289 289 288 288 288 288 288
317 317 317 317 316 316 316 316 317 317 317 317 316 314 312 311 310 309 308 308 306 306 307 307 309 311 313 312 313 314 313 312 311 311 312 313 313 312 312 312 311 311 310 307 304 302 302 306 309 309 308 305 298 293 292 292 292 292 294 296 297 298 298 298 297 297 296 296 296 295 294 292 291 291 290 290 289 289 289 289 288 288 288 288 288
317 317 316 316 316 316 316 316 316 317 317 316 315 314 312 311 310 309 308 308 307 307 307 308 309 312 313 313 313 313 312 311 310 310 311 312 312 311 311 310 310 310 310 305 299 297 299 304 307 308 307 302 295 292 292 292 292 293 295 296 297 297 297 297 297 296 296 295 295 294 293 292 291 291 290 289 289 289 289 288 288 288 288 288 288
317 317 316 316 316 316 316 316 316 316 316 316 315 314 312 311 310 309 308 308 307 307 308 309 310 311 312 313 314 312 311 310 310 310 311 311 310 310 309 309 309 309 310 305 298 297 301 304 306 306 302 297 292 291 292 292 292 294 295 296 296 297 297 297 296 296 295 295 294 293 292 292 291 291 290 289 289 289 288 288 288 288 287 287 287
317 317 316 316 316 316 315 315 315 316 316 316 315 314 313 311 310 309 308 308 307 308 309 309 309 310 311 313 313 312 311 310 310 311 311 310 309 309 309 308 308 308 309 306 299 298 302 304 303 301 296 292 291 291 291 292 293 294 295 295 296 296 296 296 296 295 295 294 294 293 292 292 292 291 290 289 288 288 288 287 287 287 286 286 286
316 316 316 316 316 316 315 314 315 315 316 316 315 314 312 311 310 309 308 308 307 308 309 309 309 310 312 312 312 311 310 309 310 310 310 308 308 308 308 308 308 307 308 306 300 299 302 302 299 295 291 290 291 290 291 292 293 294 294 295 296 296 295 295 295 295 294 294 293 292 292 292 291 290 289 289 288 288 288 287 286 286 285 285 286
316 316 316 316 315 315 315 314 314 315 315 315 315 314 312 310 310 308 308 307 307 307 308 309 308 310 311 311 310 309 309 309 309 309 309 307 307 307 307 307 307 305 305 304 299 299 301 298 293 291 290 290 290 290 291 292 293 293 294 295 295 295 295 295 294 294 294 293 293 292 292 292 291 290 289 288 288 287 287 286 285 285 285 284 285
315 315 315 315 315 315 314 314 314 314 315 315 314 313 311 310 309 308 307 307 306 306 307 308 308 309 310 310 309 309 308 308 309 309 308 307 306 306 306 306 305 302 301 300 298 299 298 294 290 290 290 290 290 290 291 292 292 293 294 295 295 295 295 294 294 294 293 293 293 292 291 291 290 289 288 288 287 286 286 285 285 284 284 284 284
315 315 315 314 314 314 314 313 313 314 314 314 313 312 310 309 309 308 307 307 306 306 306 307 308 309 310 310 309 309 308 308 308 308 307 306 306 306 305 305 303 300 298 297 297 297 294 291 290 290 290 289 290 290 291 292 292 293 294 294 294 294 294 294 294 293 293 292 292 292 290 290 289 288 287 286 285 285 285 284 284 283 283 283 283
314 314 314 314 314 314 313 313 313 313 313 313 312 311 310 309 308 307 306 306 306 306 307 308 309 310 310 310 309 308 308 308 307 307 306 306 306 305 304 303 301 298 296 295 295 294 291 290 291 290 289 290 290 290 291 292 293 294 294 294 294 294 294 293 293 293 292 292 291 291 290 289 288 287 286 285 284 284 283 283 283 283 282 282 282
314 314 313 313 313 313 313 312 312 312 312 312 311 310 309 308 307 306 306 306 305 306 307 308 309 310 309 308 308 307 307 307 306 306 305 305 305 304 303 302 299 296 294 292 292 291 290 291 291 290 290 290 290 290 291 292 293 293 293 293 294 294 293 293 293 292 292 291 290 290 289 288 287 286 285 284 283 283 282 282 282 282 282 282 282
313 313 313 313 313 312 312 312 312 312 311 311 310 309 308 307 306 305 305 305 305 305 306 308 308 308 308 307 306 306 306 306 306 305 304 304 304 304 302 301 298 295 291 290 290 290 290 290 290 290 290 290 290 291 292 292 292 292 293 294 294 294 294 293 293 292 291 291 290 289 288 287 286 285 284 283 282 282 282 282 282 282 281 281 281
313 313 313 313 313 312 311 311 311 311 310 309 309 308 306 305 305 304 304 304 304 304 306 307 307 307 306 305 305 305 305 305 305 305 305 304 304 303 301 299 296 292 289 289 290 289 289 290 290 290 290 290 291 292 292 292 292 292 293 294 294 294 294 293 292 291 291 290 289 288 287 285 284 284 284 283 283 282 282 282 282 281 280 280 280
313 313 313 313 312 311 311 310 310 309 309 308 307 306 305 304 303 303 303 303 303 304 305 306 306 305 304 303 303 304 304 305 305 304 304 303 302 301 299 295 292 290 288 289 289 289 289 289 289 290 290 291 291 291 291 291 292 293 294 295 294 294 293 292 291 291 289 288 287 286 285 285 285 285 285 284 283 282 281 281 280 280 280 280 280
312 312 312 312 311 310 310 309 309 308 307 306 305 305 304 303 303 302 302 302 302 303 304 305 305 304 303 303 303 303 303 303 303 302 301 300 298 297 294 291 289 288 288 288 289 288 288 289 289 290 290 290 291 290 291 291 293 294 295 294 294 293 292 292 290 289 287 287 286 286 286 286 286 285 284 282 281 280 280 279 279 279 279 279 278
312 311 311 310 309 309 308 308 307 307 306 305 304 303 303 302 301 301 301 301 301 302 303 304 304 303 303 302 302 302 302 302 301 300 298 296 294 294 291 288 288 288 288 288 288 288 288 289 289 290 290 290 290 290 291 293 294 294 294 293 293 293 291 290 288 287 287 287 287 287 286 285 284 283 282 281 280 279 279 279 278 278 278 277 277
311 310 310 309 308 308 307 307 306 305 305 304 303 302 302 301 301 300 300 299 300 301 302 302 302 302 301 301 301 301 300 299 298 297 295 292 291 290 289 287 287 288 288 288 288 288 289 289 289 289 289 289 289 291 292 293 294 293 293 293 292 290 288 287 287 287 287 287 286 286 285 285 284 283 282 281 280 279 278 278 278 278 277 277 277
310 309 309 308 308 307 307 306 306 305 304 303 302 302 301 300 300 299 299 299 299 300 301 301 301 301 301 301 300 300 298 296 294 292 290 289 288 288 287 286 286 287 287 287 288 288 288 288 288 289 289 289 290 292 293 293 293 293 292 291 289 287 287 287 287 287 286 286 285 285 285 284 283 282 281 280 279 278 278 278 278 278 277 277 277
309 308 308 308 307 307 306 306 305 304 303 302 301 301 300 300 299 298 298 299 299 299 299 299 299 300 300 300 299 298 295 292 290 288 287 287 286 286 286 285 286 286 287 287 288 288 288 288 288 288 288 290 291 292 292 292 292 291 289 288 287 287 287 287 287 286 286 285 285 284 283 283 282 281 280 279 278 277 277 276 276 276 276 275 275
307 307 307 307 306 305 305 304 303 302 302 301 300 300 299 299 298 298 298 298 299 299 299 299 299 300 300 299 297 295 291 288 287 286 285 285 285 285 285 285 285 285 286 287 287 287 287 287 287 288 290 291 292 292 292 291 289 288 287 287 287 287 287 286 286 285 285 284 283 283 282 281 280 279 278 277 277 276 276 275 275 275 275 275 274
306 306 305 305 305 304 303 302 301 301 300 299 299 299 298 298 298 298 298 298 298 298 299 299 300 299 299 297 295 292 288 287 286 285 285 284 285 284 284 284 285 285 286 286 287 286 286 287 288 289 291 292 292 292 290 288 287 287 287 287 287 286 286 285 285 284 283 283 282 281 280 279 279 278 277 277 276 276 276 275 275 275 275 275 274
305 305 304 304 303 303 302 301 300 300 299 298 298 298 298 298 298 297 298 298 298 298 299 298 298 297 296 294 292 289 287 286 285 285 285 284 284 284 284 284 285 285 286 286 286 286 287 288 289 290 291 291 290 289 287 287 287 287 287 286 286 285 285 284 283 283 282 282 281 280 279 278 278 277 277 276 276 275 275 275 275 275 274 274 274
303 303 303 303 302 301 301 300 300 299 298 298 298 297 297 297 297 297 298 298 298 298 297 296 295 294 293 292 290 289 288 286 286 285 285 285 284 284 284 284 285 285 286 286 286 287 288 289 291 291 291 289 288 287 287 287 287 286 286 285 285 284 283 283 282 282 281 280 279 279 278 277 277 277 276 276 275 275 275 275 275 274 274 273 273
302 302 302 302 301 300 299 299 299 299 298 298 298 297 297 297 297 297 297 297 297 296 295 294 293 293 293 292 291 290 289 288 287 286 285 285 285 285 285 285 285 286 286 287 288 289 290 291 291 290 288 287 287 287 287 287 286 285 285 284 283 283 282 282 282 281 280 279 279 278 278 278 277 277 276 275 275 275 275 274 274 274 273 273 273
301 302 302 301 300 300 299 299 299 299 298 298 297 296 296 296 296 295 295 295 294 294 293 293 293 293 293 293 293 292 291 290 288 287 286 286 286 286 286 286 287 287 288 289 290 290 290 290 289 288 287 287 287 287 286 286 285 284 284 283 283 282 282 282 281 280 279 279 278 278 278 278 277 276 275 275 275 274 274 274 273 273 272 272 272
302 302 301 301 301 300 300 300 299 299 299 299 298 297 295 294 294 294 294 294 294 293 293 294 294 294 294 294 293 293 293 292 290 289 288 288 287 287 288 288 289 289 290 290 290 289 288 288 287 287 288 287 287 286 285 285 284 283 283 283 282 282 281 281 280 279 279 279 278 278 277 277 276 275 275 275 275 274 274 273 273 272 272 272 271
302 302 302 301 301 301 301 300 300 299 299 298 298 297 296 294 293 293 293 294 295 295 294 294 294 294 294 294 293 293 292 292 292 291 291 290 290 290 290 290 290 290 289 289 288 287 287 288 288 287 287 286 285 285 284 283 283 283 282 282 282 281 281 280 279 279 279 278 278 277 276 276 275 275 275 274 274 274 273 273 272 272 272 271 271
303 303 303 302 301 301 300 300 300 299 298 297 296 296 296 295 295 294 294 295 295 295 295 294 294 294 293 293 293 292 292 292 291 291 291 291 290 290 289 289 288 288 287 287 287 288 288 288 287 286 286 285 284 284 283 283 283 282 282 282 281 281 280 279 279 279 278 278 277 276 276 275 275 274 274 274 274 273 273 272 272 272 271 270 270
302 302 302 302 301 300 300 299 299 298 297 297 296 296 296 297 297 296 296 295 295 295 295 294 294 293 293 292 291 290 290 290 290 289 289 289 288 288 288 287 287 287 288 288 288 288 287 287 286 285 284 284 283 283 283 283 282 282 282 281 280 280 279 279 279 278 278 277 276 276 275 275 274 274 274 274 273 273 272 272 272 271 271 270 270
301 300 301 301 300 300 299 299 298 297 297 297 297 297 297 297 297 297 297 296 295 294 293 293 292 291 290 290 290 289 289 289 288 288 288 288 288 288 288 288 288 288 288 287 287 287 286 285 285 284 284 283 283 283 283 282 282 281 281 280 280 279 279 279 278 277 277 276 276 275 275 274 274 273 273 273 273 272 272 272 271 271 270 270 269
299 299 299 299 299 299 299 298 298 298 297 297 297 297 297 297 296 296 296 295 294 294 293 292 290 290 289 289 289 289 289 288 288 288 288 288 288 288 288 288 288 288 287 287 286 285 285 284 284 283 283 283 283 283 282 282 281 281 280 280 279 279 278 278 278 277 276 276 275 275 274 274 273 273 273 273 273 272 272 271 271 270 270 269 269
299 298 298 298 298 298 298 298 297 297 297 297 297 296 296 296 295 295 294 294 293 292 291 290 290 289 289 289 289 289 289 288 288 288 288 288 288 288 288 288 287 287 286 286 285 284 284 283 283 283 283 283 282 282 282 281 281 280 280 279 279 278 278 278 277 276 276 275 274 274 274 273 273 272 272 272 272 272 271 271 270 270 270 269 269
299 298 298 298 298 298 298 297 297 297 297 296 296 296 295 294 293 292 292 292 291 290 290 290 289 289 289 289 289 289 289 289 289 289 288 288 288 288 287 287 286 286 285 285 284 283 283 283 283 283 282 282 282 281 281 280 280 280 279 279 279 278 278 277 276 276 275 274 274 274 273 273 272 272 272 272 272 271 271 271 270 270 269 269 268
298 298 298 298 298 297 297 297 297 296 296 295 295 294 293 292 291 290 290 290 290 289 289 289 289 289 289 289 289 289 289 289 289 289 288 288 288 287 286 286 285 285 284 284 283 283 283 283 283 282 282 281 281 281 280 280 280 279 279 279 278 278 277 276 276 275 274 274 273 273 273 272 272 272 272 271 271 271 271 270 270 269 269 269 268
298 297 297 297 297 297 296 296 295 295 294 294 293 292 291 290 290 289 289 289 289 289 289 289 289 289 289 289 289 289 289 289 289 288 288 287 287 286 286 285 285 284 283 283 283 283 282 282 282 281 281 281 280 280 280 280 279 279 279 278 278 277 277 276 275 274 274 273 273 272 272 272 272 271 271 271 271 271 270 270 269 269 269 269 268
297 297 297 296 296 295 295 294 293 293 292 291 291 290 290 289 289 289 289 289 289 289 289 289 289 289 289 289 289 289 288 288 288 287 287 286 286 285 285 284 284 283 283 282 282 282 282 281 281 281 280 280 280 280 279 279 279 278 278 277 277 276 276 275 275 274 273 273 272 272 272 271 271 271 271 271 270 270 270 270 269 269 269 268 268
296 296 296 295 294 293 293 292 291 290 290 290 290 289 289 289 289 289 289 289 289 289 289 289 289 289 289 289 289 288 288 287 287 286 286 286 285 285 284 284 283 282 282 282 282 281 281 280 280 280 279 279 279 279 279 279 278 278 277 277 276 276 275 275 274 273 273 272 272 272 271 271 271 271 270 270 270 270 269 269 269 269 269 268 268
295 294 293 292 292 291 291 290 290 290 290 289 289 289 289 289 289 289 289 289 289 289 289 289 289 289 289 288 288 288 287 287 286 286 285 285 284 284 283 283 282 282 281 281 281 280 280 279 279 279 279 279 279 278 278 278 277 277 276 276 276 275 275 274 273 273 272 272 272 271 271 271 271 270 270 270 269 269 269 269 269 268 268 268 268
293 292 291 290 290 290 290 290 290 289 289 289 289 289 289 289 289 289 289 289 289 288 288 289 289 288 288 288 288 287 287 286 285 285 284 284 284 283 282 282 281 281 280 280 280 279 279 278 278 278 278 278 278 277 277 277 276 276 276 275 275 274 274 273 273 272 272 271 271 271 271 270 270 270 270 270 269 269 269 269 268 268 268 268 267
291 290 290 290 290 290 290 290 289 289 289 289 289 289 289 288 288 288 288 288 288 288 288 288 288 288 287 287 287 286 286 285 284 284 284 283 283 282 281 280 280 280 280 279 279 278 278 278 278 278 277 277 277 276 276 276 275 275 275 274 274 274 273 272 272 271 271 271 271 271 270 270 270 270 269 269 269 269 269 269 268 268 268 268 267
290 290 290 290 289 289 289 289 289 289 289 289 289 288 288 288 288 288 288 288 288 288 288 288 287 287 286 286 286 285 284 284 283 283 283 282 281 280 280 280 279 279 279 278 278 277 277 277 277 277 277 276 276 276 275 275 274 274 274 274 273 273 272 272 271 271 271 271 271 270 270 270 270 269 269 269 269 269 269 268 268 268 268 268 267
290 290 289 289 289 289 289 289 289 289 288 288 288 288 288 288 288 287 287 287 287 287 287 286 286 286 285 285 284 284 283 283 282 282 281 280 280 279 279 279 278 278 278 277 277 277 276 276 276 276 276 275 275 275 274 274 274 273 273 273 273 272 272 271 271 270 270 270 270 270 270 270 269 269 269 269 268 269 269 268 268 268 268 268 268
289 289 289 289 289 289 288 288 288 288 288 288 288 287 287 287 287 287 287 287 286 286 286 285 285 284 284 283 283 282 282 281 281 280 279 279 278 278 278 277 277 276 276 276 276 276 276 275 275 275 275 274 274 274 274 273 273 273 272 272 272 271 271 270 270 270 270 270 270 270 269 269 269 269 269 268 268 268 268 268 268 268 268 268 268
289 289 289 289 288 288 288 288 288 288 287 287 287 287 287 287 286 286 286 285 285 285 284 284 283 283 282 282 281 281 280 280 279 279 278 277 277 277 276 276 276 275 275 275 275 275 275 274 274 274 274 274 273 273 273 272 272 272 272 272 271 271 270 270 270 269 269 269 269 269 269 269 269 268 268 268 268 268 268 268 268 268 268 268 267
289 289 288 288 288 288 287 287 287 287 287 287 287 286 286 286 285 285 284 284 283 283 283 282 282 281 281 280 280 279 279 278 278 277 277 276 276 276 275 275 275 275 275 275 274 274 274 274 274 273 273 273 273 272 272 272 272 271 271 271 271 270 270 269 269 269 269 269 269 269 269 269 268 268 268 268 268 268 268 268 267 267 267 267 267
288 288 287 287 287 287 287 287 287 287 286 286 286 285 285 284 284 283 283 283 282 282 282 281 281 281 280 279 279 278 277 277 276 276 275 275 275 275 275 275 275 275 275 274 274 274 273 273 273 273 272 272 272 272 272 271 271 271 271 270 270 270 269 269 269 268 268 268 268 268 268 268 268 268 268 268 268 267 267 267 267 267 267 267 267
287 287 287 287 286 286 286 286 286 286 285 285 284 284 283 283 283 282 282 282 281 281 281 281 280 279 278 278 277 276 276 275 275 275 275 275 275 275 275 275 274 274 274 274 273 273 273 273 272 272 272 272 272 271 271 271 271 270 270 270 269 269 269 268 268 268 268 268 268 268 268 268 268 268 268 267 267 267 267 267 267 267 267 267 267
Wind_Speed
13 14 14 16 18 18 19 19 20 21 22 22 23 22 23 24 25 26 27 28 30 32 33 34 35 36 37 37 38 39 37 34 32 30 29 30 32 33 35 37 38 39 40 42 44 45 42 39 36 32 30 29 28 27 26 24 21 19 17 16 15 14 13 12 11 11 13 14 15 16 16 17 18 19 20 20 20 22 23 23 24 25 26 27 28
15 16 16 17 18 18 18 19 20 23 24 24 23 22 24 24 25 26 27 29 30 32 33 35 36 37 37 38 39 38 33 32 32 31 30 30 30 31 34 36 36 35 37 38 39 40 41 39 35 32 30 30 28 27 26 24 22 20 19 18 17 15 13 12 13 13 14 15 17 18 17 18 19 20 21 21 21 23 25 25 25 26 28 28 29
16 18 18 18 19 19 18 18 21 25 26 26 24 23 24 25 25 27 28 29 30 31 34 36 37 37 37 37 37 36 32 31 32 32 32 31 29 30 33 36 38 36 35 35 35 36 38 36 33 33 32 31 29 27 26 24 23 21 20 19 16 14 13 13 14 14 15 16 16 17 18 20 21 21 22 22 23 25 26 27 27 28 29 30 31
17 19 19 20 20 20 19 19 22 26 27 28 26 24 24 25 26 27 28 29 30 30 33 35 36 36 36 36 35 34 32 31 30 30 31 30 29 30 32 35 39 38 35 34 34 35 36 36 35 35 33 31 30 28 26 25 24 22 21 18 14 12 12 13 14 15 16 17 16 17 19 21 23 22 22 23 24 25 26 27 28 28 30 31 32
18 19 20 21 21 21 21 21 23 26 28 29 28 26 25 25 25 26 28 29 30 31 32 35 36 36 35 35 33 32 31 29 28 28 30 31 30 30 31 32 35 36 34 33 33 33 34 36 37 35 33 32 31 29 28 26 24 22 18 15 12 11 11 12 14 16 17 19 19 19 19 21 23 23 22 23 25 26 27 29 29 30 31 33 34
19 20 21 23 23 22 22 23 25 26 27 29 29 27 26 26 25 26 27 29 31 32 33 34 36 35 34 32 31 30 29 28 28 28 30 32 31 30 29 28 29 31 30 29 29 30 33 35 36 35 34 33 32 30 29 27 23 19 15 13 11 10 11 14 16 17 18 20 21 22 21 21 22 23 24 24 26 29 30 31 32 32 34 36 37
20 22 23 24 24 24 24 25 26 26 28 30 30 29 27 27 26 25 27 29 31 32 33 34 34 34 33 31 30 30 29 27 28 29 31 31 29 28 27 26 25 26 26 26 26 28 31 33 33 33 33 32 32 31 29 25 21 16 13 11 10 11 13 16 17 18 20 21 22 24 23 22 22 25 26 26 28 31 31 33 35 36 37 39 41
23 24 24 25 25 25 25 26 27 27 29 31 31 30 28 27 27 27 27 28 30 32 32 32 32 32 32 33 32 30 28 27 26 28 28 27 26 26 26 25 25 26 26 25 26 27 29 31 30 30 31 31 31 30 27 22 18 15 12 10 10 13 16 17 18 19 21 23 24 24 23 24 25 27 27 27 29 31 31 34 38 41 41 43 44
26 26 26 27 27 27 27 28 28 28 30 32 33 32 30 28 28 28 28 28 29 31 31 30 30 31 32 32 31 29 27 26 26 26 26 24 24 26 26 26 27 28 28 26 27 28 29 30 30 29 30 30 29 26 23 19 16 14 11 10 13 15 16 17 19 21 22 24 25 24 25 27 28 28 28 28 29 32 33 35 39 42 42 44 47
28 28 29 29 28 29 30 30 30 30 31 33 35 33 30 28 28 29 29 28 29 31 32 31 31 31 30 29 28 27 26 26 27 28 25 22 22 24 25 27 28 29 29 28 29 30 30 30 29 29 30 30 27 24 21 18 15 13 11 12 15 16 17 19 21 22 23 25 26 25 27 30 30 28 29 30 30 32 35 36 38 40 40 44 49
31 31 31 31 30 31 31 31 31 30 32 34 36 34 31 28 28 29 28 27 28 31 33 33 32 31 30 28 26 26 26 26 27 28 24 21 22 24 25 27 28 30 30 29 29 31 31 31 31 31 31 29 26 23 19 16 14 13 12 14 16 17 20 22 23 24 25 26 26 26 28 31 31 29 29 31 32 33 35 36 37 39 40 43 48
35 35 34 32 32 31 31 32 32 31 32 35 36 35 31 28 28 29 28 27 28 30 33 33 31 31 30 29 29 28 27 25 25 26 24 22 23 24 25 27 29 30 30 29 30 32 33 34 33 32 30 27 24 21 17 15 14 13 14 16 18 21 24 25 25 25 25 25 27 28 29 30 32 30 29 32 34 35 36 37 38 40 41 42 45
37 37 35 33 31 30 30 31 32 32 33 35 36 34 32 29 28 28 27 26 26 28 30 31 30 30 31 31 29 27 25 24 25 27 25 23 23 23 24 27 28 28 29 29 30 32 34 35 34 32 29 26 22 18 16 15 14 13 15 18 21 24 25 26 26 26 25 25 28 30 28 28 31 32 31 32 34 36 37 39 40 40 40 42 44
38 37 34 31 29 29 30 31 32 33 34 34 35 33 31 29 27 27 26 25 25 26 28 30 30 30 30 29 26 24 24 23 24 26 26 24 23 23 24 26 26 24 25 28 29 32 34 35 34 32 28 24 20 17 16 15 13 14 17 19 23 25 25 25 25 25 24 25 27 29 28 28 31 34 33 32 33 35 37 39 40 38 39 42 44
36 34 31 30 29 30 30 31 32 33 33 33 33 32 30 28 26 26 25 25 25 26 27 29 29 29 28 25 24 25 26 24 22 23 25 23 22 23 25 25 23 22 24 27 30 32 33 33 32 29 25 21 19 17 15 14 14 16 19 22 25 25 24 24 24 23 24 24 26 29 30 30 33 35 34 33 33 34 35 36 35 34 37 41 43
34 32 31 32 31 30 30 30 31 32 32 32 31 30 29 27 25 25 25 25 25 25 27 29 28 26 24 22 21 22 25 25 23 21 22 21 22 24 25 24 23 23 25 28 31 32 32 31 28 24 21 19 18 16 14 14 16 19 22 25 25 24 24 24 24 24 24 25 27 29 31 32 33 34 33 32 31 30 31 32 32 31 32 36 38
33 32 32 32 30 29 28 28 28 29 29 29 29 28 26 25 23 23 24 25 25 26 27 28 27 24 21 20 21 22 25 26 24 22 21 22 24 25 25 24 24 24 26 30 31 30 29 27 25 22 21 18 16 14 14 16 18 22 25 25 23 23 24 24 24 25 25 26 28 30 31 32 32 31 30 28 27 25 26 29 30 29 30 32 34
31 31 31 31 28 26 25 25 25 25 25 26 25 25 23 22 21 21 22 23 23 25 26 26 25 22 19 20 22 23 24 23 22 21 21 22 23 24 24 25 25 26 28 30 30 29 27 25 24 22 19 16 14 14 15 18 22 24 24 22 21 23 24 24 25 26 26 27 28 29 29 29 29 29 28 26 25 23 23 26 28 27 27 30 32
30 31 29 27 24 23 22 22 22 23 23 23 22 21 20 20 19 19 20 21 21 23 24 23 22 20 19 20 21 21 20 19 19 20 20 20 21 22 23 25 26 28 29 30 30 29 28 26 24 20 16 14 15 16 18 22 24 23 21 21 23 24 24 25 26 27 27 28 28 28 28 28 28 28 27 26 24 23 23 24 24 24 25 27 28
30 27 25 22 21 21 20 20 21 21 21 20 20 19 18 18 18 18 19 19 20 21 22 21 21 21 20 19 18 18 18 18 18 19 19 19 19 20 22 25 27 28 29 30 31 30 29 26 22 18 16 16 17 19 22 23 23 21 21 22 24 24 24 25 26 26 26 26 26 26 27 27 26 26 26 26 24 23 23 23 22 21 23 24 25
25 23 22 21 20 19 19 19 20 19 19 18 18 17 17 16 16 17 18 18 19 20 20 21 20 20 18 16 15 16 16 17 18 18 18 18 18 19 22 24 26 28 29 30 31 30 28 25 20 18 17 18 20 22 23 23 22 22 22 23 23 23 23 24 24 23 24 24 24 25 26 26 26 25 25 25 23 22 22 21 21 21 20 20 21
22 21 20 19 18 18 18 18 18 17 17 17 17 16 16 16 16 17 17 18 18 19 19 18 18 17 16 16 16 16 16 17 16 16 16 16 17 19 22 24 25 27 29 30 30 28 25 22 20 19 20 21 22 23 22 22 21 21 21 21 21 21 21 21 21 21 21 22 24 25 25 26 26 25 24 23 22 22 22 23 24 25 25 25 26
20 19 18 18 18 17 17 16 16 15 16 16 16 15 16 16 17 17 17 18 18 17 17 16 16 15 16 16 17 17 17 16 15 14 14 15 16 18 20 22 23 25 27 29 28 26 24 23 22 22 22 22 23 22 21 20 20 19 19 18 18 19 18 18 18 19 21 23 24 25 25 25 25 25 24 24 24 24 25 26 28 30 31 31 31
18 17 17 17 16 15 15 14 14 14 14 14 15 15 16 16 17 17 17 17 17 17 16 15 15 15 16 17 18 18 17 16 15 15 15 15 17 18 20 21 23 25 27 28 27 27 26 24 23 23 22 22 22 20 19 18 16 15 16 16 15 15 16 17 18 20 21 22 23 23 24 24 24 25 25 26 26 26 27 28 29 30 31 31 31
17 16 15 15 14 14 13 13 13 13 13 14 14 15 16 16 16 16 17 17 17 17 16 16 16 16 17 17 17 17 17 17 18 19 19 19 20 21 23 24 26 27 28 29 28 27 26 25 24 23 22 21 19 17 16 14 13 13 13 13 13 14 16 17 18 20 21 21 22 23 23 23 23 24 24 25 26 26 27 27 28 29 29 29 30
16 15 14 13 13 13 13 13 13 14 14 14 14 15 15 15 16 16 17 17 17 16 16 16 16 16 17 17 17 18 18 19 20 21 22 23 24 25 26 28 29 29 29 29 28 27 26 24 23 22 20 18 16 14 13 12 12 12 11 11 13 15 16 17 18 19 20 21 21 21 21 22 23 23 24 25 25 25 26 27 28 28 28 29 30
14 14 13 12 12 13 13 14 14 15 15 15 16 16 16 15 16 16 17 17 17 16 16 15 15 16 16 16 16 17 18 20 21 22 23 25 26 27 29 29 29 29 28 28 27 25 24 22 20 19 17 15 13 11 10 10 10 10 12 13 15 16 17 18 19 20 21 21 20 21 21 22 23 24 24 24 24 24 26 27 27 28 28 29 30
13 12 11 11 12 13 13 14 15 15 16 17 16 16 16 16 16 15 15 14 14 14 14 13 13 14 14 16 16 17 18 19 20 21 23 24 26 27 28 28 28 27 26 25 23 22 20 18 17 15 13 12 10 9 8 8 10 11 13 14 15 16 18 18 19 20 20 20 21 22 23 24 24 25 24 24 24 25 25 26 26 27 27 28 29
11 10 10 11 12 13 14 14 15 16 17 18 17 17 16 15 14 13 13 12 11 11 11 12 12 12 13 14 14 15 15 16 17 18 19 21 22 22 23 23 22 22 21 20 18 17 16 15 14 12 10 9 8 8 8 9 11 12 13 14 15 17 18 19 19 20 20 21 22 23 24 24 24 24 24 24 24 24 25 25 25 25 26 26 27
10 10 10 11 12 13 14 15 15 16 17 18 18 18 16 14 13 11 11 11 12 12 12 12 12 12 13 13 12 12 12 13 15 16 17 18 18 19 19 19 18 18 17 16 15 15 14 13 11 9 8 8 7 7 8 9 10 12 14 15 17 18 19 19 19 20 21 22 23 24 24 24 23 23 23 23 24 24 24 24 24 24 25 25 26
8 8 9 10 12 13 14 15 16 17 17 17 17 18 18 18 16 14 13 13 14 14 13 13 13 13 13 13 13 13 13 13 14 15 16 17 17 17 17 16 16 15 15 14 13 13 12 11 10 9 8 7 6 7 7 9 10 13 15 17 18 19 19 19 19 20 22 22 23 23 23 22 22 22 22 22 23 23 23 23 23 23 23 23 24
6 7 9 11 12 13 15 16 17 17 18 18 17 17 18 19 19 18 17 16 15 15 14 14 14 14 14 13 13 14 14 15 15 15 15 15 15 15 14 14 14 13 13 12 12 11 10 10 10 8 7 7 6 7 8 10 12 14 16 17 18 18 18 19 20 21 21 22 22 22 22 21 21 21 21 22 22 22 22 22 22 22 22 22 22
9 9 11 13 14 15 16 16 16 17 17 17 17 17 17 18 19 19 19 18 16 15 15 14 14 13 13 14 14 13 13 14 14 14 13 13 13 12 13 12 12 12 12 11 11 11 11 10 9 8 7 7 7 8 10 12 14 15 16 16 17 18 19 20 20 20 20 21 21 21 21 21 20 20 20 20 21 21 21 21 21 21 21 21 20
11 11 12 13 15 16 16 15 16 16 15 15 16 16 16 15 15 15 15 16 16 15 15 14 13 13 13 13 13 13 13 12 12 12 12 12 12 12 12 12 12 12 12 11 12 11 10 9 8 7 7 8 9 11 13 14 15 15 15 16 17 18 19 20 20 20 20 20 21 21 21 20 19 19 19 19 20 20 20 20 20 20 20 20 20
12 12 12 13 14 14 15 15 15 15 15 15 15 14 14 13 12 12 12 13 14 15 15 15 14 14 13 13 12 12 12 12 12 12 12 12 12 13 13 13 13 13 13 12 12 11 10 9 8 8 9 10 12 13 14 14 15 15 16 17 18 19 19 20 20 20 20 20 20 20 20 19 18 18 18 18 19 19 19 18 18 19 19 19 19
13 13 13 13 13 13 14 14 14 14 14 14 13 12 12 11 11 11 11 12 12 13 13 14 15 14 14 13 13 12 12 12 12 12 12 13 13 13 13 13 13 13 13 12 12 11 9 8 8 9 11 12 13 14 14 14 15 16 17 18 19 19 20 20 20 20 20 19 19 18 18 18 18 17 17 17 18 18 18 18 17 17 17 18 18
14 13 13 13 13 14 14 14 14 13 13 13 13 12 12 12 11 10 10 11 11 11 12 12 12 12 13 13 13 13 13 13 13 13 13 13 13 13 13 13 13 13 13 13 11 10 9 9 10 11 12 13 14 14 14 15 16 17 18 19 19 20 20 20 20 20 20 19 19 18 17 17 17 17 17 16 16 16 16 16 16 16 16 17 17
14 14 13 13 13 13 14 13 13 13 13 13 12 12 12 12 11 10 10 10 11 11 10 10 10 11 11 11 12 12 13 13 13 13 13 13 14 14 14 14 14 14 13 12 11 10 10 10 11 12 13 13 14 15 15 16 18 18 19 20 20 20 21 21 20 20 20 19 18 18 17 17 17 17 17 16 16 16 15 15 16 16 15 16 16
15 14 14 14 13 13 14 14 13 14 13 13 13 12 12 12 12 12 11 11 11 11 11 11 10 11 11 11 11 12 13 14 14 14 14 15 15 16 16 15 15 14 13 12 11 11 11 12 13 13 13 14 15 16 17 18 19 20 20 20 20 21 21 21 21 20 20 19 18 18 17 17 17 17 17 16 16 16 15 15 15 15 16 16 16
16 16 16 16 14 14 14 14 13 13 13 13 13 12 12 12 12 12 12 13 13 13 12 11 11 11 11 11 12 13 14 15 16 16 17 17 17 17 16 15 14 13 13 12 12 12 13 13 13 14 14 15 16 17 19 19 20 20 20 21 21 21 21 21 21 21 20 19 19 18 18 17 17 17 17 17 16 16 15 15 15 15 15 16 17
16 17 16 16 15 14 14 14 13 13 13 12 12 12 12 13 13 13 14 14 14 14 13 13 13 12 12 13 14 16 17 17 18 18 19 19 18 17 16 15 14 14 14 14 13 13 13 14 14 15 15 16 18 19 20 20 21 21 21 21 21 21 21 22 22 21 20 20 19 19 18 17 17 17 17 17 16 16 15 15 15 15 15 16 17
16 16 16 16 15 15 15 14 14 14 13 13 13 13 14 14 14 15 15 16 15 15 15 15 15 14 14 16 18 19 19 19 19 20 19 19 18 17 16 16 16 15 15 15 14 14 14 15 15 16 17 18 19 20 21 21 21 21 21 21 21 21 21 22 22 22 21 21 20 19 18 18 18 18 17 17 17 16 16 15 15 15 15 15 16
17 17 16 16 16 15 15 14 14 14 14 14 15 15 15 16 16 17 17 17 17 17 17 17 16 16 17 19 20 21 20 19 19 19 19 19 18 17 17 17 16 16 15 15 15 15 15 16 16 18 19 20 21 21 21 21 22 22 22 22 22 21 22 22 23 22 22 22 21 21 19 18 18 18 18 18 18 17 16 16 16 15 15 15 16
18 17 16 16 16 15 15 15 15 15 16 16 16 17 17 17 18 18 19 19 19 19 19 18 17 18 19 20 20 19 18 18 19 19 19 19 18 18 17 17 16 16 16 16 16 16 16 17 18 20 20 21 21 22 22 22 22 22 22 22 22 22 22 22 22 23 23 23 22 21 20 19 19 19 19 19 19 18 17 17 16 16 16 15 16
18 18 17 16 15 15 15 15 15 16 16 17 17 18 18 19 19 20 20 20 19 19 19 18 18 19 20 21 20 18 17 18 19 20 19 18 18 17 17 17 17 18 18 17 17 18 18 19 20 21 22 22 22 23 23 23 23 23 23 23 23 22 22 22 23 23 24 24 23 22 22 21 20 20 20 19 20 20 19 18 17 17 17 16 16
18 18 17 16 15 15 15 15 16 17 17 18 18 19 19 20 20 20 20 19 19 19 18 18 18 19 20 20 19 18 18 19 19 19 18 18 17 17 18 18 18 19 19 18 19 19 20 21 22 22 22 23 23 24 24 24 24 24 23 23 23 23 23 23 24 24 25 25 25 24 24 23 22 21 21 20 21 21 20 19 18 18 17 17 16
17 17 16 16 16 16 16 16 17 17 18 18 19 19 19 19 19 19 19 19 19 19 18 18 18 18 19 18 18 18 18 18 18 18 18 18 18 18 19 19 19 20 20 19 20 20 21 22 22 23 23 24 24 25 25 25 25 25 25 24 24 24 23 24 25 25 25 26 26 25 25 24 23 22 22 22 22 21 21 21 20 19 19 18 17
16 16 16 17 17 17 17 17 17 17 17 18 18 18 18 18 18 18 18 18 18 17 17 17 17 17 17 17 18 18 18 18 18 18 18 19 19 20 20 20 20 20 21 21 21 21 22 23 23 23 24 24 25 25 26 26 26 26 26 25 25 25 24 25 26 26 26 26 27 26 26 25 24 23 23 22 22 22 22 21 21 20 20 19 18
17 17 17 17 17 17 17 17 17 16 16 16 17 17 17 17 17 17 17 16 16 16 16 16 16 16 16 17 18 18 19 19 19 19 20 20 20 21 21 21 21 22 22 22 22 22 23 24 24 25 25 25 25 26 26 26 27 27 26 26 26 26 26 26 26 26 27 27 27 27 27 26 25 24 23 23 23 23 23 22 21 21 21 20 19
17 17 17 17 17 16 16 16 16 16 16 16 16 16 16 16 16 16 16 15 15 15 15 16 16 17 17 18 19 19 20 20 20 20 20 20 21 21 22 22 23 23 23 23 23 24 24 25 25 26 26 26 27 27 27 27 27 27 27 27 27 27 27 27 26 26 27 27 27 27 27 27 26 26 25 24 24 23 23 23 22 21 21 21 19
16 16 16 15 15 15 15 16 16 16 16 16 16 16 16 15 15 15 15 15 15 16 16 17 17 18 19 19 19 19 20 20 20 20 20 21 21 22 23 23 24 24 25 25 25 25 25 26 26 26 27 27 27 28 28 28 28 27 27 27 28 27 27 27 26 26 26 27 27 28 28 27 27 27 25 24 24 24 24 23 23 22 22 21 20
Wind_Direction
275 280 284 286 286 287 289 292 292 289 287 288 288 287 282 275 269 259 251 248 243 238 236 233 233 236 238 240 242 244 246 243 240 245 251 253 252 248 247 250 248 241 235 231 228 228 229 231 232 231 231 232 231 230 229 226 221 214 209 206 206 207 209 220 234 246 257 264 271 277 282 286 289 292 295 297 300 302 302 303 305 305 307 309 310
268 271 273 275 278 281 284 289 291 289 286 285 285 285 281 276 270 261 252 247 242 238 235 233 236 239 241 242 242 242 243 242 242 244 245 249 252 249 248 250 244 236 232 231 231 232 232 232 230 229 231 231 229 229 226 220 215 210 207 207 209 214 225 242 254 258 262 269 277 283 287 288 288 289 291 293 298 300 301 303 304 305 307 309 309
266 268 269 271 273 274 277 284 288 288 287 286 285 283 279 275 270 263 255 248 244 241 236 234 238 241 241 241 240 239 239 242 245 243 240 245 250 251 252 249 240 234 234 235 234 235 233 229 228 230 230 227 225 224 219 213 210 208 208 210 216 227 243 259 267 268 271 276 282 288 291 289 287 287 288 291 296 299 300 302 303 306 307 308 308
265 266 267 269 269 269 273 279 282 285 287 286 284 280 276 273 269 263 256 249 245 242 238 236 237 238 238 238 238 239 239 240 242 242 242 244 249 253 253 248 241 239 239 238 237 236 232 228 228 230 229 225 221 218 211 207 207 207 211 217 226 242 257 268 274 276 279 282 285 288 289 287 286 286 288 291 295 298 299 300 304 307 309 308 308
263 265 266 267 266 268 271 274 278 281 283 284 282 277 274 272 270 264 258 251 246 243 239 237 236 235 236 239 240 239 238 238 242 246 246 244 246 252 253 247 244 243 240 238 239 239 236 232 230 229 226 223 218 213 207 206 206 208 215 225 237 254 267 277 282 284 287 288 290 290 287 284 284 285 288 291 295 298 298 299 304 308 308 307 308
264 266 267 266 267 268 268 270 277 280 279 280 278 275 273 272 270 265 259 254 248 244 241 237 234 234 236 239 239 236 236 240 246 251 250 242 239 246 251 250 249 246 243 240 240 240 239 236 233 229 226 222 216 210 205 205 206 209 219 232 248 266 281 289 291 291 292 292 292 293 290 284 282 284 286 290 294 296 297 300 303 304 306 306 307
266 267 267 267 268 270 268 269 275 278 277 276 275 273 272 272 270 266 261 255 250 245 241 236 233 233 235 239 239 235 237 243 249 252 249 240 234 238 246 251 253 252 249 244 241 241 237 233 231 227 223 220 215 209 206 204 205 211 225 241 260 282 296 301 299 297 295 294 294 294 291 287 284 285 287 289 293 295 300 305 304 303 306 308 307
268 269 268 268 270 272 270 267 271 275 276 275 273 271 270 270 269 266 261 256 250 244 239 235 233 233 236 242 241 236 236 243 250 249 242 235 234 238 243 248 253 256 254 244 238 237 232 226 225 222 219 216 212 209 207 205 207 217 231 250 277 298 306 306 303 302 299 297 296 293 290 289 289 289 289 291 294 297 304 307 305 306 309 309 307
267 269 270 272 274 273 268 265 268 273 276 275 273 271 269 268 267 265 261 257 249 242 235 232 233 234 239 242 240 236 238 246 251 244 234 233 239 241 243 246 250 255 257 246 233 229 225 221 219 216 211 208 205 203 202 203 213 226 240 265 293 307 311 309 308 306 303 299 296 292 291 292 292 292 291 293 298 303 307 307 304 306 307 306 304
264 269 273 275 275 271 266 264 267 272 276 276 274 271 268 266 264 262 260 256 248 239 233 231 231 233 238 239 237 239 243 248 250 241 233 237 245 244 246 248 248 251 252 244 230 222 218 215 211 206 203 201 199 198 199 205 219 232 251 280 302 311 315 314 313 310 305 300 294 291 292 294 294 294 295 298 303 306 307 305 303 303 303 302 302
263 269 274 275 273 269 265 264 266 272 275 275 274 271 267 264 262 260 258 254 248 239 232 230 229 231 236 238 241 245 246 248 249 241 237 246 251 249 249 250 249 248 245 239 228 219 213 207 202 200 200 200 198 198 201 211 225 241 267 293 309 317 319 318 316 312 306 299 295 292 291 293 295 297 300 304 307 306 304 302 301 300 300 299 300
264 270 273 272 269 269 267 265 266 270 273 273 272 270 266 262 260 259 257 254 250 241 232 229 229 230 234 238 241 243 244 248 248 240 240 250 252 251 252 250 248 245 239 232 225 217 209 200 196 198 200 200 199 198 205 219 233 255 284 304 315 318 318 317 315 310 303 297 295 292 290 293 297 300 304 306 305 304 302 300 298 297 297 297 296
264 270 269 266 267 271 270 267 267 270 271 271 270 268 265 261 258 258 256 253 251 243 231 226 227 231 234 238 241 242 243 246 243 240 243 250 253 257 258 252 247 243 236 228 221 214 205 197 195 197 197 197 198 201 212 227 244 273 297 310 315 315 315 314 312 307 300 295 294 293 293 296 297 299 304 305 303 302 300 299 299 298 297 297 296
263 267 264 262 267 271 270 268 269 270 270 269 267 265 264 260 257 255 253 250 246 239 228 224 227 233 237 239 242 245 248 249 245 244 247 250 252 255 254 247 241 235 229 223 217 210 204 201 201 199 197 197 201 207 219 235 260 287 302 310 312 312 311 310 306 300 295 292 290 289 291 294 294 296 301 302 301 301 300 301 301 301 299 299 298
261 264 265 268 271 270 269 269 270 269 267 265 264 263 261 257 254 251 247 244 241 234 226 224 229 235 238 238 239 241 247 252 249 246 245 245 246 248 246 238 229 220 216 216 214 210 206 206 205 203 201 201 205 213 226 249 276 294 304 308 308 307 306 303 297 291 287 284 283 284 288 291 293 296 300 302 302 302 301 301 300 299 299 299 299
266 270 272 273 273 272 271 270 269 266 264 263 263 261 258 255 252 248 243 238 235 230 224 225 231 235 235 236 239 240 244 249 250 247 244 242 243 244 238 227 216 208 208 212 211 208 205 204 202 201 202 203 208 220 240 265 285 296 302 303 302 301 299 296 290 286 283 282 283 286 288 291 295 297 300 302 302 302 302 300 300 303 305 304 306
273 273 274 275 275 274 271 268 266 264 263 263 262 260 257 254 250 246 240 234 230 227 224 225 230 234 235 241 246 245 244 246 249 248 243 239 240 238 229 216 205 202 206 209 206 201 200 200 199 200 201 204 215 233 256 276 288 295 297 296 295 294 292 289 286 284 284 285 286 289 292 295 298 300 302 304 305 308 309 308 312 317 314 310 310
273 273 275 276 274 271 268 264 263 263 263 262 261 259 257 253 249 243 237 232 228 224 223 225 228 232 238 245 247 245 244 244 243 241 236 233 234 229 219 208 200 200 205 204 197 193 194 195 196 199 202 212 230 249 266 280 288 291 291 290 288 289 289 288 288 289 290 292 295 297 300 303 304 306 309 314 318 322 321 318 321 320 312 307 307
274 274 274 272 268 265 263 262 262 262 261 260 258 256 252 248 242 235 228 225 223 222 222 223 223 226 234 240 240 241 240 237 232 229 227 227 225 218 209 204 201 202 203 197 189 188 191 191 193 199 209 225 242 258 272 281 286 287 285 285 287 289 290 291 293 296 299 302 305 307 308 311 314 317 322 327 328 328 323 319 319 315 307 306 308
272 270 266 264 262 262 261 259 258 257 255 254 251 247 243 237 231 224 219 216 216 218 219 219 220 225 232 235 236 236 234 228 224 223 222 219 215 208 203 202 201 201 198 193 189 188 189 192 196 203 218 234 248 263 275 281 283 282 283 286 290 291 292 295 298 303 306 308 310 313 316 320 324 326 326 325 324 321 319 316 315 313 310 309 307
265 263 262 262 262 261 259 256 254 251 248 246 243 238 233 227 220 214 211 210 211 213 216 217 220 227 231 231 229 227 223 221 220 218 214 208 203 200 199 199 200 199 195 193 192 192 192 196 202 211 224 240 254 267 276 279 280 282 286 289 290 292 295 299 304 308 310 312 315 319 324 326 326 325 323 321 320 318 316 315 313 312 310 307 302
263 263 263 263 262 260 258 254 250 247 243 239 234 228 222 215 209 204 203 205 206 209 214 217 219 222 222 221 219 216 214 214 212 207 202 198 194 194 196 198 200 199 195 193 193 195 197 200 207 219 232 247 261 271 277 279 280 284 287 289 291 295 300 305 309 311 314 318 322 325 327 326 324 322 319 317 314 311 309 306 304 302 300 298 294
263 263 262 262 260 256 253 250 245 241 237 231 225 219 213 206 201 197 197 199 202 205 208 209 209 212 214 214 213 209 207 205 199 189 186 187 188 191 193 194 195 197 198 196 194 196 201 206 214 226 240 254 266 273 276 278 280 282 285 289 294 299 304 308 313 318 322 325 327 326 325 322 320 317 315 314 313 311 308 305 303 301 300 298 297
258 257 255 253 250 247 243 239 234 229 225 220 214 207 201 197 194 192 193 195 197 198 199 200 202 206 210 210 208 204 199 193 182 171 170 175 179 182 184 186 188 192 196 198 199 202 207 214 223 236 250 260 268 272 274 276 279 282 287 293 299 304 310 317 323 326 327 327 325 323 321 319 317 316 316 316 316 315 313 310 308 307 306 306 306
250 247 245 243 240 237 232 225 221 217 212 208 204 199 195 192 189 190 191 193 193 193 194 198 202 206 208 206 203 197 191 184 174 168 168 171 173 176 178 182 187 191 194 198 203 207 213 222 234 246 257 264 267 269 272 276 281 287 293 301 309 316 323 327 328 328 326 324 322 320 318 317 316 317 317 317 316 315 313 311 310 310 311 312 312
242 238 237 234 230 227 223 216 210 204 199 195 193 193 192 189 189 192 192 192 192 194 197 200 202 203 202 199 196 191 185 180 175 171 171 171 173 176 179 183 188 193 197 202 207 213 221 232 244 253 259 263 265 267 272 280 286 294 304 315 323 327 328 328 328 326 324 322 320 319 317 317 317 318 317 317 316 314 313 314 316 317 318 318 319
234 230 226 223 219 215 211 208 202 195 190 187 185 184 184 186 190 194 195 195 196 197 198 200 200 199 195 191 191 189 186 183 180 177 175 175 177 180 184 187 192 196 201 207 214 222 232 242 249 255 257 259 264 270 278 287 295 308 321 328 329 328 327 327 327 325 322 321 320 319 319 319 319 318 317 317 317 317 318 321 322 322 322 322 322
224 219 213 210 207 202 199 198 194 187 183 181 180 179 179 183 188 192 194 197 199 197 196 195 195 194 190 186 184 184 185 185 184 182 181 182 184 187 189 194 199 204 210 218 225 233 240 245 247 250 252 258 267 276 285 299 312 322 328 329 327 325 324 325 325 323 322 322 321 320 320 319 318 318 318 320 321 322 323 324 323 323 323 323 323
209 205 201 198 196 193 190 190 188 185 181 178 176 175 176 179 184 187 187 187 186 186 186 183 179 178 177 175 173 173 175 176 179 183 186 189 192 196 199 204 210 215 221 227 231 235 238 239 241 246 252 259 269 282 299 315 323 324 324 323 321 321 322 323 323 323 322 321 320 319 317 317 317 318 320 321 323 323 324 323 322 322 322 322 323
196 191 191 190 190 190 188 186 186 186 185 182 179 176 173 172 174 175 175 171 167 165 164 163 163 162 163 165 164 163 165 167 171 178 185 191 197 202 208 213 218 221 224 226 228 229 231 234 237 243 251 259 273 294 311 318 319 318 318 318 318 319 321 322 322 321 320 318 317 316 316 316 317 319 320 322 323 323 323 323 322 323 323 323 324
190 186 187 189 190 191 189 187 187 186 185 186 185 181 175 168 164 162 161 159 158 157 157 159 163 165 168 172 171 168 170 175 180 183 186 192 198 203 209 213 216 219 221 223 224 225 227 231 237 242 251 265 284 299 307 310 312 314 315 315 316 317 319 319 319 318 317 315 314 315 315 315 316 317 319 321 322 322 323 323 323 323 324 324 324
196 196 196 194 193 191 190 189 188 187 186 186 185 184 180 172 164 159 157 158 162 164 165 169 172 172 174 177 177 175 175 179 184 189 191 195 200 204 209 213 214 216 217 217 219 223 228 236 242 247 256 270 284 293 301 308 311 312 313 312 313 314 315 315 315 315 314 313 313 312 313 313 313 315 318 320 320 321 322 324 324 324 324 324 325
204 206 202 196 191 190 191 191 189 188 187 185 181 181 182 178 170 165 164 166 170 172 173 175 177 177 177 176 176 178 179 180 183 187 191 195 199 202 206 209 210 212 214 217 223 229 232 237 245 254 264 277 289 298 306 310 309 308 309 308 309 310 310 311 312 312 311 311 310 309 309 310 311 313 316 318 319 321 323 325 325 325 324 324 326
200 204 203 197 192 191 189 187 185 184 182 182 179 177 178 179 178 177 175 175 177 178 178 178 178 179 180 178 177 178 180 181 185 189 192 195 197 200 203 205 209 215 219 223 230 235 237 242 250 261 274 288 300 305 306 306 305 305 305 305 306 307 307 308 309 309 308 307 305 304 305 306 308 312 315 317 318 321 324 325 325 324 324 324 327
190 193 195 193 191 188 183 180 179 177 176 176 176 177 179 182 187 191 192 190 189 186 183 181 179 179 180 182 183 185 186 188 192 195 197 199 201 204 207 211 218 224 227 228 233 238 243 249 258 273 288 296 301 301 301 301 302 302 302 303 303 304 305 306 306 305 304 302 300 300 301 303 306 310 312 314 317 320 324 325 324 324 325 325 327
181 181 182 182 183 182 179 176 176 177 178 180 182 185 188 191 194 196 198 199 198 193 188 184 183 183 185 189 193 196 197 199 201 202 203 206 209 213 217 221 226 232 235 238 240 242 248 259 273 286 293 295 296 296 297 297 298 298 299 300 302 303 303 303 302 301 299 297 296 296 297 300 304 307 309 312 315 318 322 323 323 324 324 324 327
178 178 179 180 180 180 180 181 183 186 190 192 194 195 194 191 190 190 191 194 194 192 191 193 194 197 201 204 206 207 209 211 212 211 212 216 219 222 225 228 231 235 237 240 243 247 258 273 282 287 289 291 292 293 294 294 295 296 298 299 300 300 300 299 298 296 294 293 293 294 295 297 300 303 306 309 312 314 317 318 319 321 323 323 325
182 183 185 187 188 189 191 193 195 198 199 199 199 197 193 188 183 180 183 189 192 193 199 205 210 215 220 221 219 218 219 222 223 223 224 226 228 229 231 233 234 235 235 236 242 253 265 274 278 281 284 287 288 289 290 292 293 295 296 297 297 297 296 295 293 291 290 289 289 290 292 294 296 299 302 305 307 310 312 314 315 317 319 321 322
192 193 195 196 198 200 201 202 202 202 200 197 195 193 190 188 186 185 189 193 198 204 211 217 221 226 231 232 228 224 225 229 232 235 235 235 233 233 234 234 233 233 235 240 249 258 265 270 275 278 280 282 285 286 288 290 291 293 294 294 294 294 293 291 290 288 287 286 286 287 288 290 292 295 298 301 303 305 308 310 311 314 316 318 319
205 206 205 202 200 200 199 198 198 197 196 195 193 194 194 195 197 200 203 206 210 215 221 229 235 237 238 236 232 230 232 235 237 238 237 236 236 236 237 237 236 237 242 248 254 260 265 269 273 276 278 281 283 285 287 288 289 290 291 291 290 290 289 288 287 285 284 284 283 283 285 287 289 292 295 297 299 301 304 305 307 310 313 316 316
210 210 206 199 194 192 192 192 192 193 196 198 200 203 207 209 210 213 215 218 221 226 232 238 242 242 239 236 234 234 234 234 234 234 234 235 237 238 239 240 241 244 249 253 257 262 266 270 273 276 279 281 284 285 286 287 287 287 287 287 286 286 286 285 284 282 281 281 281 281 283 285 287 289 291 292 294 297 299 301 303 306 309 311 312
207 204 199 192 188 187 190 192 194 196 201 206 210 215 219 222 223 224 224 227 230 235 239 243 244 242 237 234 234 235 235 233 232 233 235 236 239 240 241 243 245 248 253 257 261 265 267 270 274 278 280 282 283 284 284 284 284 284 284 284 283 283 283 282 281 280 279 279 279 280 282 283 284 286 288 289 290 292 294 296 299 302 304 307 308
200 197 193 191 190 190 193 198 202 207 211 215 219 223 226 228 229 230 231 234 236 239 241 244 243 240 237 236 236 237 236 235 235 238 240 242 243 243 243 246 249 253 257 260 264 267 270 273 276 279 280 281 282 282 281 281 281 281 281 282 281 281 281 280 279 278 277 277 277 278 280 281 282 283 285 286 287 288 289 291 294 296 299 302 304
195 194 193 194 196 198 203 208 212 218 222 223 226 229 230 231 232 233 235 237 239 241 242 242 241 239 240 241 242 241 239 239 241 244 245 245 245 244 246 250 254 258 262 264 267 270 273 276 278 279 280 280 280 280 279 279 279 279 280 280 280 280 280 279 277 276 275 274 275 277 278 279 279 281 282 284 284 285 286 287 289 291 293 296 299
195 195 196 199 202 207 213 217 221 225 227 229 230 232 232 233 234 236 238 240 241 241 242 242 241 241 243 244 245 244 243 243 245 246 247 247 247 248 252 256 259 262 265 268 270 273 275 277 278 279 279 279 278 278 278 278 278 279 279 279 280 280 279 277 275 273 274 274 275 276 276 276 277 279 280 280 280 282 284 285 285 286 289 292 294
197 197 200 204 208 213 218 223 226 229 230 231 232 233 235 237 238 239 241 242 242 242 243 243 243 243 244 246 247 247 248 249 251 251 251 251 252 255 258 260 262 265 268 270 272 274 276 277 278 278 279 279 278 278 278 279 279 279 279 279 280 279 278 276 275 273 273 274 274 275 276 277 278 278 278 277 277 278 280 281 282 282 284 287 289
199 200 205 210 213 217 221 223 226 229 231 233 235 236 238 240 241 242 243 243 243 243 244 243 243 244 246 250 252 253 254 256 256 255 256 257 258 260 262 263 265 268 269 271 274 276 277 278 279 279 279 279 279 279 279 279 280 280 280 280 280 280 278 277 275 274 273 273 273 274 276 278 278 278 278 277 276 276 276 278 279 279 280 282 285
204 208 213 216 218 220 222 224 226 230 232 235 237 239 239 240 240 241 242 242 243 243 244 245 247 250 253 256 259 259 258 258 258 258 260 261 262 264 265 267 268 271 273 275 277 278 279 279 280 279 279 279 278 278 279 279 279 280 280 281 281 281 279 276 275 274 273 273 273 274 276 277 278 278 277 276 275 275 274 274 275 276 277 279 280
211 214 217 218 219 220 222 223 226 230 233 235 237 238 238 238 239 239 240 241 242 244 248 251 254 257 258 258 259 258 258 258 259 260 261 263 265 267 270 272 274 277 278 279 280 280 280 281 281 280 279 278 277 276 277 277 277 278 279 280 280 279 277 276 275 274 273 273 273 274 275 277 277 277 276 275 274 273 272 272 272 272 273 274 275
212 214 214 215 216 218 221 224 227 230 232 233 234 235 235 236 236 237 239 242 245 249 254 256 258 259 258 257 257 258 259 260 262 264 266 269 271 274 277 279 281 282 283 283 283 283 282 281 280 279 278 278 277 276 276 276 276 277 278 278 278 278 277 276 275 273 273 273 274 273 274 275 276 276 276 274 273 272 271 271 270 269 269 271 273
210 210 211 213 216 220 223 226 229 230 231 232 233 234 235 236 238 240 244 248 252 256 258 259 258 258 258 258 259 261 263 266 269 271 274 276 278 280 282 283 284 285 285 285 284 283 282 281 280 279 278 277 277 277 276 277 277 277 277 276 276 277 277 277 276 275 274 273 272 272 273 274 275 276 276 274 272 271 270 269 268 267 267 269 270